Location: ???? ???? ?????
(31.2680°N, 31.7283°E)
Time: 09:34:24
(UTC+00:00)

ARIANE 5 R/B - Pass Details

Date: 13 July 2020
Orbit: 749 x 794 km, 98.6° (Epoch: 07 August)

Event Time Altitude Azimuth Distance (km) Brightness Sun altitude
Rises 23:35:53 0° 32° (NNE) 3,241 6.9 -32.2°
Reaches altitude 10° 23:38:46 10° 48° (NE) 2,319 5.7 -31.9°
Maximum altitude 23:42:31 20° 96° (E) 1,714 4.5 -31.6°
Enters shadow 23:42:50 20° 101° (E) 1,720 4.4 -31.5°
